Volver al catálogo

COSMOS 2251 DEB

ActivoLEO
NORAD 36528·DEBRIS·🇷🇺 Russia

Lanzado Jun 16, 1993 desde Plesetsk Cosmodrome

Loading…

Próximos Pases (próximas 24 horas)

TLE

ActualizadoSource: Space-Track

Época: Sep 14, 2026, 13:39 UTC

1 36528U 93036BCN 26257.56919869  .00000866  00000-0  32258-3 0  9993
2 36528  74.0197   2.1631 0084741 345.2117  14.6555 14.31516753683733

Sigue COSMOS 2251 DEB en tiempo real con AllMySat

Download on the App Store